Lid_Strength_Index
11 11 11 11 12 12 12 12 12 11 11 11 10 10 10 10 10 9 9 5 4 3 3 1 1 1 1 -0 -1 -1 -1 -0 0 1 1 1 1 2 3 3 3 3 3
11 11 12 12 12 12 12 12 12 12 12 12 11 10 10 10 10 9 9 8 3 3 1 1 1 1 0 0 -0 -1 -0 1 1 0 1 0 1 1 1 1 2 2 2
12 12 12 13 12 12 12 13 12 13 13 12 12 11 10 10 9 9 9 8 6 3 2 1 1 1 1 0 0 1 1 2 2 2 2 2 2 2 2 2 2 2 2
12 13 13 13 13 13 13 13 13 13 13 13 12 12 11 10 10 9 9 8 7 5 4 3 2 2 2 2 2 2 2 2 3 3 3 2 2 2 2 2 2 2 2
11 13 13 13 13 13 13 13 13 13 14 13 12 11 11 11 10 9 9 8 7 7 7 5 5 4 4 3 2 2 3 3 3 4 3 3 3 3 3 3 3 3 3
12 13 13 13 13 14 14 14 14 13 13 13 11 11 12 11 11 11 10 8 7 7 8 8 8 8 5 4 3 3 3 4 4 4 4 4 4 4 4 4 3 3 3
12 13 13 13 13 14 14 14 14 14 13 13 13 12 12 11 11 10 9 9 9 9 9 9 9 9 9 5 4 3 4 3 4 4 5 5 4 4 4 4 4 4 4
13 13 14 14 14 14 14 14 14 14 13 13 14 14 14 12 11 10 10 10 10 9 9 9 9 9 9 9 7 5 6 5 5 5 5 5 5 5 4 4 4 4 4
13 13 14 14 15 15 15 14 14 14 14 13 13 13 15 15 13 11 11 10 10 10 10 9 9 9 9 9 9 9 7 6 6 6 6 5 5 4 4 4 4 4 3
13 13 14 15 15 15 15 14 13 14 14 15 13 12 13 13 14 14 12 11 11 10 11 12 11 10 9 10 9 9 8 8 8 7 7 6 6 5 4 4 4 4 4
14 14 14 15 15 15 15 14 14 14 14 15 15 14 14 14 13 14 14 14 12 12 14 13 14 13 10 11 11 10 9 9 8 8 8 7 7 6 5 5 4 4 3
15 15 15 16 15 15 15 15 14 15 15 15 15 15 15 15 14 15 15 15 12 11 10 10 10 14 13 13 11 10 10 10 9 9 8 8 7 7 6 6 5 4 4
17 16 16 16 16 15 15 15 15 15 15 15 15 15 14 14 14 14 15 16 17 16 14 13 10 10 10 11 13 11 11 10 10 9 9 8 8 7 7 6 5 5 4
16 16 16 16 16 15 15 15 15 15 15 15 13 14 13 12 12 12 13 14 18 18 17 15 11 11 11 12 13 11 13 11 11 10 8 8 7 7 6 6 6 6 6
17 18 17 18 17 17 17 17 19 18 13 13 13 13 13 13 13 13 13 13 14 17 18 14 12 12 12 14 13 13 13 12 10 10 8 8 8 7 7 7 7 7 6
17 19 20 20 22 22 21 21 20 18 14 14 14 14 14 13 13 13 13 13 13 14 17 20 13 12 13 13 14 13 13 11 11 9 9 8 8 8 8 8 8 7 7
19 20 21 21 21 22 23 22 20 17 15 14 14 14 14 13 14 14 13 13 13 13 15 15 17 14 14 15 15 15 14 14 14 11 9 8 8 8 8 8 8 8 8
22 21 21 20 22 20 18 17 16 15 15 15 15 14 14 14 14 13 14 14 14 13 14 15 14 13 16 16 16 16 14 13 14 11 9 8 9 9 9 9 9 9 9
20 20 19 19 17 16 16 16 15 15 15 15 15 14 14 14 14 14 14 14 13 13 13 14 14 13 15 17 16 16 16 15 13 11 10 9 10 10 10 9 9 9 9
20 19 19 18 16 16 16 16 15 15 15 15 14 14 14 14 14 14 14 14 14 14 14 14 14 14 14 17 18 16 15 16 15 14 13 12 11 11 11 10 9 9 10
20 20 20 17 16 16 16 16 15 15 15 15 15 14 13 13 13 13 14 15 15 15 15 15 15 15 16 18 18 18 17 17 16 16 16 15 15 15 15 12 10 10 10
21 20 19 17 18 17 15 14 14 15 15 15 15 14 14 14 13 12 12 12 14 16 16 16 16 17 17 17 18 18 20 20 18 17 17 16 16 16 15 15 11 9 10
21 21 21 19 18 17 15 14 13 14 15 15 14 14 14 14 14 14 13 12 12 12 13 15 17 16 17 16 17 19 20 20 19 18 18 18 18 16 15 14 10 9 9
20 20 20 20 19 19 15 14 14 14 14 14 14 14 14 14 14 14 15 16 15 14 13 13 14 15 15 15 16 16 18 20 20 19 19 19 20 18 17 16 11 10 9
19 19 17 17 17 16 14 14 14 14 14 14 14 14 14 14 14 13 14 15 15 15 13 11 11 11 11 11 12 16 17 19 16 19 20 20 19 19 19 19 17 11 10
19 18 17 17 16 16 14 13 13 14 14 15 14 14 14 13 13 12 14 14 15 14 15 17 16 13 12 12 10 12 13 15 15 16 18 18 20 20 21 19 19 18 17